Regional Weather Roundup
Issued by NWS

Home | Current Version | Previous Version | Text Only | Print | Product List | Glossary Off
Versions: 1 2 3 4 5 6 7 8 9 10 11 12 13 14 15 16 17 18 19 20 21 22 23 24 25 26 27 28 29 30 31 32 33 34 35 36 37 38 39 40 41 42 43 44 45 46 47 48 49 50

000
ASUS45 KPSR 282110
RWRAZ

ARIZONA HOURLY REGIONAL WEATHER ROUNDUP
NATIONAL WEATHER SERVICE PHOENIX AZ
200 PM MST FRI AUG 28 2015

NOTE: FAIR INDICATES FEW OR NO CLOUDS BELOW 12,000 FEET WITH NO
SIGNIFICANT WEATHER AND/OR OBSTRUCTIONS TO VISIBILITY.

AZZ001>003-036-282200-
NORTHWEST ARIZONA

CITY           SKY/WX    TMP DP  RH WIND       PRES   REMARKS
BULLHEAD CITY  MOSUNNY  108  55  18 SW9       29.81F HX 106
KINGMAN        MOSUNNY   96  45  17 N12       30.05F
$$

AZZ004>008-015-016-018-282200-
NORTH CENTRAL ARIZONA

CITY           SKY/WX    TMP DP  RH WIND       PRES   REMARKS
GRAND CANYON   PTSUNNY   76  45  33 SW6       30.33F
WILLIAMS       CLOUDY    81  45  28 NE7G14    30.36S
PRESCOTT       PTSUNNY   91  48  22 S10       30.17F
FLAGSTAFF      MOSUNNY   73  48  41 E3        30.36S
PAYSON         SUNNY     90  43  19 NE6G13    30.18F
PAGE           SUNNY     93  44  18 N8        30.13F
$$

AZZ009>014-017-282200-
NORTHEAST ARIZONA

CITY           SKY/WX    TMP DP  RH WIND       PRES   REMARKS
WINSLOW        SUNNY     91  46  21 NE8       30.16F
SAINT JOHNS    SUNNY     85  49  28 MISG      30.21F
WINDOW ROCK    PTSUNNY   78  43  28 E8        30.29F
SHOW LOW       SUNNY     79  43  27 NE5       30.28F
$$

AZZ023-282200-
GREATER PHOENIX AREA

CITY           SKY/WX    TMP DP  RH WIND       PRES   REMARKS
PHOENIX        MOSUNNY  104  56  20 VRB5      29.82F HX 103
BUCKEYE        SUNNY    102  57  22 S6        29.83F HX 101
GLENDALE       MOSUNNY  106  57  20 CALM      29.84F HX 105
LUKE AFB       SUNNY    103  62  26 NW3       29.82F HX 104
DEER VALLEY    SUNNY    101  56  22 CALM      29.84F HX 100
SCOTTSDALE     SUNNY    103  56  21 SW8       29.86F HX 102
MESA-GATEWAY   MOSUNNY  100  57  23 W7        29.87F
$$

AZZ027-028-282200-
SOUTHWEST MARICOPA COUNTY AND PINAL COUNTY

CITY           SKY/WX    TMP DP  RH WIND       PRES   REMARKS
CASA GRANDE    SUNNY    102  57  22 CALM      29.86F HX 101
GILA BEND      MOSUNNY  105  56  19 N10       29.81F HX 103
$$

AZZ503-504-507>509-282200-
SOUTHEAST ARIZONA

CITY           SKY/WX    TMP DP  RH WIND       PRES   REMARKS
TUCSON         SUNNY     99  52  20 CALM      29.98F
DAVIS-MONTHAN  SUNNY     96  54  24 S3        29.96F
RYAN FIELD     SUNNY     99  55  23 W5        29.96F
NOGALES        SUNNY     95  51  22 W9        30.06F
SIERRA VISTA   PTSUNNY   89  54  30 S8        30.13F
DOUGLAS        SUNNY     90  53  28 CALM      30.08F
SAFFORD        SUNNY     94  53  25 W9        29.98F
$$

AZZ020-021-025-026-031-282200-
SOUTHWEST ARIZONA

CITY           SKY/WX    TMP DP  RH WIND       PRES   REMARKS
YUMA           MOSUNNY  108  61  21 VRB3      29.77F HX 110
$$

CAZ031-033-041-043-047-048-061-282200-
SOUTHERN CALIFORNIA

CITY           SKY/WX    TMP DP  RH WIND       PRES   REMARKS
DOWNTOWN L.A.  SUNNY     95  58  28 CALM      29.84F
L.A. AIRPORT   MOSUNNY   84  64  50 W12       29.86F
SAN DIEGO      MOSUNNY   87  63  44 SW8       29.87F
BURBANK        SUNNY    101  56  22 VRB6      29.86F HX 100
ONTARIO        MOSUNNY  103  49  16 W10G20    29.86F
RIVERSIDE      SUNNY    103  51  17 W7G17     29.85F HX 100
PALM SPRINGS   MOSUNNY  109  56  17 E10       29.81F HX 108
EL CENTRO NAS  MOSUNNY  108  61  21 VRB3      29.77F HX 110
IMPERIAL       SUNNY    110  61  20 N5        29.75F HX 112
BLYTHE         SUNNY    110  60  19 NW7       29.78F HX 111
NEEDLES        MOSUNNY  110  52  14 VRB7      29.82F HX 107
$$

NVZ020-UTZ003-282200-
SOUTHERN NEVADA-UTAH

CITY           SKY/WX    TMP DP  RH WIND       PRES   REMARKS
LAS VEGAS      PTSUNNY  102  49  16 VRB7      29.90F
SALT LAKE CITY MOSUNNY   93  31  11 NW6       30.11F
$$

NMZ009-TXZ055-282200-
NEW MEXICO-WEST TEXAS

CITY           SKY/WX    TMP DP  RH WIND       PRES   REMARKS
ALBUQUERQUE    PTSUNNY   90  44  20 NW13      30.16F
EL PASO        PTSUNNY   96  51  21 N5        30.01F
$$


........................KEY........................
SKY/WX - SKY CONDITION/WEATHER
TMP    - TEMPERATURE IN FAHRENHEIT
DP     - DEW POINT IN FAHRENHEIT
RH     - RELATIVE HUMIDITY IN PERCENT
WIND   - DIRECTION AND SPEED IN MILES PER HOUR (MPH)
VRB    - VARIABLE WIND DIRECTION
PRES   - MEAN SEA LEVEL PRESSURE IN INCHES OF MERCURY
         F - FALLING PRESSURE   R - RISING PRESSURE
         S - STEADY PRESSURE
VSB    - VISIBILITY IN MILES
HX     - HEAT INDEX IN FAHRENHEIT
WCI    - WIND CHILL INDEX IN FAHRENHEIT
TC     - TEMPERATURE IN CELSIUS WHICH IS ALSO KNOWN AS
         TEMPERATURE IN CENTIGRADE
AFB    - AIR FORCE BASE
         LUKE AFB IS LUKE AIR FORCE BASE
         DAVIS-MONTHAN IS DAVIS-MONTHAN AIR FORCE BASE
NAS    - NAVAL AIR STATION
         EL CENTRO NAS IS EL CENTRO NAVAL AIR STATION
N/A    - NOT AVAILABLE



USA.gov is the U.S. government's official web portal to all federal, state and local government web resources and services.